This demonstration page uses our WeatherBlox Daily Observations layout. Learn more.

Left ArrowRight Arrow

Hourly Observations for October 6, 2015

Temp ( °F °C ) Dew Point ( °F °C ) Humidity (%) Winds ( mph kmh ) Pressure ( in mb ) Visibility ( mi km ) Precip ( " mm )
12:53 am 00:53 Clear 64 17.8 61 16.1 90 90 ENE 3 6 30.01 1016 10 16 0.00 0.00
1:53 am 01:53 Clear 63 17.2 60 15.6 90 90 Calm 30.00 1016 10 16 0.00 0.00
2:53 am 02:53 Mostly Clear 62 16.7 60 15.6 93 93 Calm 30.00 1016 10 16 0.00 0.00
3:53 am 03:53 Clear 63 17.2 59 15 87 87 ENE 5 7 30.00 1016 10 16 0.00 0.00
4:53 am 04:53 Clear 61 16.1 58 14.4 90 90 Calm 30.00 1016 10 16 0.00 0.00
5:53 am 05:53 Clear 60 15.6 57 13.9 90 90 Calm 30.01 1016 10 16 0.00 0.00
6:53 am 06:53 Clear 59 15 57 13.9 93 93 Calm 30.03 1017 10 16 0.00 0.00
7:53 am 07:53 Sunny 58 14.4 56 13.3 93 93 Calm 30.05 1018 9 14 0.00 0.00
8:53 am 08:53 Sunny 62 16.7 58 14.4 86 86 Calm 30.06 1018 10 16 0.00 0.00
9:53 am 09:53 Sunny 65 18.3 54 12.2 68 68 ENE 9 15 30.08 1019 10 16 0.00 0.00
10:53 am 10:53 Cloudy 66 18.9 53 11.7 63 63 E 6 9 30.09 1019 10 16 0.00 0.00
11:53 am 11:53 Cloudy 66 18.9 51 10.6 59 59 ENE 6 9 30.08 1019 10 16 0.00 0.00
12:53 pm 12:53 Cloudy 70 21.1 54 12.2 57 57 Calm 30.08 1019 10 16 0.00 0.00
1:53 pm 13:53 Cloudy 71 21.7 54 12.2 55 55 Calm 30.05 1018 10 16 0.00 0.00
2:53 pm 14:53 Cloudy 72 22.2 55 12.8 55 55 Calm 30.02 1017 10 16 0.00 0.00
3:44 pm 15:44 Mostly Sunny 75 23.9 58 14.4 55 55 NNW 6 9 30.00 1016 10 16 0.00 0.00
3:53 pm 15:53 Mostly Sunny 74 23.3 58 14.4 57 57 Calm 30.00 1016 10 16 0.00 0.00
4:53 pm 16:53 Sunny 76 24.4 60 15.6 58 58 N 8 13 29.99 1016 10 16 0.00 0.00
5:53 pm 17:53 Sunny 76 24.4 60 15.6 58 58 NW 7 11 29.99 1016 10 16 0.00 0.00
6:53 pm 18:53 Sunny 74 23.3 60 15.6 62 62 Calm 29.99 1016 10 16 0.00 0.00
7:53 pm 19:53 Clear 68 20 62 16.7 81 81 Calm 30.00 1016 10 16 0.00 0.00
8:53 pm 20:53 Clear 65 18.3 62 16.7 90 90 Calm 30.01 1016 10 16 0.00 0.00
9:53 pm 21:53 Clear 63 17.2 61 16.1 93 93 Calm 30.01 1016 10 16 0.00 0.00
10:53 pm 22:53 Clear 62 16.7 60 15.6 93 93 Calm 30.01 1016 10 16 0.00 0.00
11:53 pm 23:53 Clear 61 16.1 59 15 93 93 Calm 30.01 1016 10 16 0.00 0.00

Powered by AerisWeather